Flag for U.S.A. Weather past 2 weeks in Livonia, Michigan, U.S.A.

Now
28 °F

Mostly cloudy.


Feels Like: 18 °F
Forecast: 29 / 35 °F
Wind: 13 mph from West

Location: Detroit Metropolitan Wayne County Airport

Current Time: Dec 17, 2014 at 11:16:30 PM

Latest Report: Dec 17, 2014 at 10:04 PM


Visibility: 10 mi

Pressure: 30.16 "Hg

Humidity: 64%

Dew point: 18 °F

Location of LivoniaLocation

Historic Weather in Livonia — Graph

°F

Livonia temperature yesterday

Maximum temperature yesterday: 47 °F (at 2:53 PM)
Minimum temperature yesterday: 39 °F (at 11:53 PM)
Average temperature yesterday: 44 °F

Past Weeks' High & Low Weather Summary

 TemperatureHumidityPressure
High52 °F (Dec 14, 2:53 PM)100% (Dec 16, 4:00 AM)30.72 "Hg (Dec 16, 4:00 AM)
Low21 °F (Dec 11, 3:53 AM)32% (Dec 11, 2:53 PM)29.68 "Hg (Dec 16, 9:01 AM)
Average36 °F75%30.19 "Hg
* Reported Dec 2 10:53 PM — Dec 17 10:04 PM, Livonia, Weather by CustomWeather, © 2014

Note: Actual official high and low records may vary slightly from our data, if they occured in-between our weather recording intervals... More about our weather records

Advertising

Livonia weather history for previous 24 hours

 ConditionsComfort  
Time TempWeatherWind HumidityBarometerVisibility
10:04 PM
Dec 17
28 °FMostly cloudy.13 mph64%30.16 "Hg10 mi
9:53 PM28 °FMostly cloudy.12 mph66%30.18 "Hg9 mi
8:53 PM29 °FLight snow. Overcast.15 mph66%30.17 "Hg9 mi
8:00 PM30 °FLight snow. Overcast.14 mph64%30.14 "Hg9 mi
7:53 PM30 °FLight snow. Overcast.16 mph66%30.16 "Hg9 mi
6:53 PM30 °FLight snow. Overcast.17 mph61%30.15 "Hg9 mi
5:53 PM30 °FOvercast.17 mph69%30.13 "Hg10 mi
4:53 PM31 °FOvercast.10 mph69%30.11 "Hg10 mi
3:53 PM31 °FOvercast.14 mph73%30.10 "Hg10 mi
2:53 PM32 °FOvercast.16 mph66%30.09 "Hg10 mi
1:53 PM32 °FOvercast.20 mph64%30.09 "Hg10 mi
12:53 PM32 °FOvercast.15 mph66%30.09 "Hg10 mi
11:53 AM32 °FOvercast.15 mph66%30.10 "Hg10 mi
10:53 AM32 °FOvercast.17 mph69%30.11 "Hg10 mi
9:53 AM32 °FOvercast.15 mph69%30.09 "Hg10 mi
8:53 AM32 °FLight snow. Overcast.16 mph73%30.07 "Hg9 mi
7:53 AM33 °FLight snow. Overcast.15 mph72%30.06 "Hg9 mi
6:53 AM33 °FOvercast.16 mph75%30.04 "Hg10 mi
5:53 AM34 °FOvercast.24 mph76%30.01 "Hg9 mi
4:53 AM35 °FOvercast.15 mph75%29.99 "Hg10 mi
3:53 AM36 °FOvercast.15 mph75%29.97 "Hg10 mi
2:53 AM36 °FOvercast.17 mph79%29.96 "Hg10 mi
1:53 AM37 °FLight rain. Overcast.15 mph79%29.93 "Hg10 mi
12:53 AM38 °FMostly cloudy.20 mph76%29.92 "Hg10 mi
11:53 PM
Dec 16
39 °FOvercast.20 mph79%29.91 "Hg10 mi
Weather by CustomWeather, © 2014

See weather overviewHow to use our weather pages